Regional Weather Roundup
Issued by NWS

Home | Current Version | Previous Version | Text Only | Print | Product List | Glossary On
Versions: 1 2 3 4 5 6 7 8 9 10 11 12 13 14 15 16 17 18 19 20 21 22 23 24 25 26 27 28 29 30 31 32 33 34 35 36 37 38 39 40 41 42 43 44 45 46 47 48 49 50
000
ASUS43 KFSD 230002
RWRSD

WEATHER ROUNDUP FOR SOUTH DAKOTA
NATIONAL WEATHER SERVICE SIOUX FALLS SD
600 PM CST MON JAN 22 2018

NOTE: "FAIR" INDICATES FEW OR NO CLOUDS BELOW 12,000 FEET WITH NO
SIGNIFICANT WEATHER AND/OR OBSTRUCTIONS TO VISIBILITY.


SDZ001>005-009-010-012>017-230100-
NORTHWEST AND NORTH CENTRAL SOUTH DAKOTA

CITY           SKY/WX    TMP DP  RH WIND       PRES   REMARKS
BUFFALO          N/A     29  18  63 W7        29.94R WCI  22
FAITH            N/A     30  23  75 NW9       29.99R WCI  22
MOBRIDGE       CLOUDY    24  21  88 N8        30.01R WCI  15
$$

SDZ012>016-024>037-041>051-057-063-072>074-230100-
SOUTHWEST AND SOUTH CENTRAL SOUTH DAKOTA

CITY           SKY/WX    TMP DP  RH WIND       PRES   REMARKS
RAPID CTY ARPT CLEAR     33  18  53 N14       30.00R WCI  23
PIERRE         CLOUDY    23  22  96 N13       30.02R WCI  11
CUSTER         CLEAR     29   8  41 N6        29.95R WCI  23
ELLSWORTH AFB  CLEAR     34  18  51 N12       29.99R WCI  26
PHILIP         CLEAR     32  26  78 NW9       30.00R WCI  24
PINE RIDGE     CLEAR     17  13  84 CALM      30.02R
SPEARFISH        N/A     32  18  55 W9        30.02R WCI  24
WINNER         MIX PCPN  25  22  88 NW14      29.99R FOG     WCI  13
$$

SDZ004>011-016>023-039-040-230100-
NORTHEAST SOUTH DAKOTA

CITY           SKY/WX    TMP DP  RH WIND       PRES   REMARKS
ABERDEEN       CLOUDY    23  20  88 N22       30.02R WCI   8
WATERTOWN      CLOUDY    23  23 100 N22G31    29.90R WCI   8
BROOKINGS      CLOUDY    26  23  88 N22G30    29.87R WCI  12
SISSETON         N/A     26  22  84 N22       29.97R WCI  12
$$

SDZ017-020-022-023-036>040-048>070-230100-
SOUTHEAST SOUTH DAKOTA

CITY           SKY/WX    TMP DP  RH WIND       PRES   REMARKS
SIOUX FALLS    CLOUDY    28  25  88 N26G37    29.83R WCI  13
HURON          CLOUDY    24  22  91 N26G32    29.98R WCI   8
CHAMBERLAIN    CLOUDY    26  25  95 NW15      29.99R WCI  14
MITCHELL       CLOUDY    26  23  88 N26G32    29.96R WCI  10
YANKTON        MIX PCPN  27  25  93 NW28G35   29.86R FOG     WCI  11
$$

ABBREVIATIONS USED IN REMARKS
   TC - TEMPERATURE IN CELSIUS
  WCI - WIND CHILL INDEX
   HX - HEAT INDEX
  VSB - VISIBILITY





USA.gov is the U.S. government's official web portal to all federal, state and local government web resources and services.